Carmi, IL

6:44 PM CST on February 23, 2018 (GMT -0600)
Carmi Municipal

Weather History for KCUL - September, 2012

Change the Weather History Date:

Saturday, September 15, 2012

  Actual Average (KEHR) Record (KEHR)
Temperature  
Mean Temperature 66 °F -  
Max Temperature 79 °F 81 °F 101 °F (1939)
Min Temperature 54 °F 58 °F 41 °F (1996)
Cooling Degree Days 2    
Growing Degree Days 16 (Base 50)    
Moisture  
Dew Point 51 °F    
Average Humidity 62    
Maximum Humidity 89    
Minimum Humidity 31    
Precipitation  
Precipitation 0.00 in - - ()
Sea Level Pressure  
Sea Level Pressure 30.23 in    
Wind  
Wind Speed 5 mph (NE)    
Max Wind Speed 13 mph    
Max Gust Speed 20 mph    
Visibility 8 miles    
Events      
Averages and records for this station are not official NWS values.
T = Trace of Precipitation, MM = Missing Value Source: NWS Daily Summary

Daily Weather History Graph

Daily Weather History Graph

Search for Another Location

Airport or City:

Trip Planner

Search our weather history database for the weather conditions in past years. The results will help you decide how hot, cold, wet, or windy it might be!

Date:

Astronomy

Sep. 15, 2012 Rise Set
Actual Time 6:34 AM CDT 6:59 PM CDT
Civil Twilight 6:08 AM CDT 7:26 PM CDT
Nautical Twilight 5:37 AM CDT 7:57 PM CDT
Astronomical Twilight 5:05 AM CDT 8:28 PM CDT
Moon 6:04 AM CDT (9/15) 6:30 PM CDT (9/15)
Length of Visible Light 13h 17m
Length of Day
12h 25m
Waning Crescent, 0% of the Moon is Illuminated
Sep 15
Waning Crescent
Sep 15
New
Sep 22
First Quarter
Sep 29
Full
Oct 8
Last Quarter

Hourly Weather History & Observations

Time (CDT) Temp. Dew Point Humidity Pressure Visibility Wind Dir Wind Speed Gust Speed Precip Events Conditions
12:15 AM 56.5 °F 52.9 °F 88% 30.30 in 10.0 mi Calm Calm - N/A   Clear
12:35 AM 58.3 °F 52.3 °F 81% 30.30 in 10.0 mi Calm Calm - N/A   Clear
12:55 AM 57.0 °F 52.3 °F 84% 30.30 in 10.0 mi Calm Calm - N/A   Clear
1:15 AM 56.3 °F 53.1 °F 89% 30.30 in 10.0 mi North 3.5 mph - N/A   Clear
1:35 AM 56.8 °F 53.2 °F 88% 30.29 in 10.0 mi North 4.6 mph - N/A   Clear
1:55 AM 56.7 °F 53.1 °F 88% 30.29 in 10.0 mi North 4.6 mph - N/A   Clear
2:15 AM 56.7 °F 52.7 °F 87% 30.29 in 7.0 mi North 4.6 mph - N/A   Clear
2:35 AM 56.5 °F 52.5 °F 87% 30.29 in 7.0 mi North 4.6 mph - N/A   Clear
2:55 AM 56.8 °F 52.9 °F 87% 30.29 in 7.0 mi North 5.8 mph - N/A   Clear
3:15 AM 56.5 °F 52.7 °F 87% 30.28 in 10.0 mi North 5.8 mph - N/A   Clear
3:35 AM 56.5 °F 52.7 °F 87% 30.28 in 7.0 mi NNE 6.9 mph - N/A   Clear
3:55 AM 56.7 °F 52.2 °F 85% 30.27 in 10.0 mi NNE 4.6 mph - N/A   Clear
4:15 AM 56.3 °F 51.8 °F 85% 30.28 in 7.0 mi NNE 4.6 mph - N/A   Clear
4:35 AM 56.3 °F 51.1 °F 83% 30.28 in 10.0 mi NNE 4.6 mph - N/A   Clear
4:55 AM 55.2 °F 50.5 °F 84% 30.28 in 7.0 mi NNE 4.6 mph - N/A   Clear
5:15 AM 54.5 °F 50.5 °F 86% 30.28 in 10.0 mi NNE 4.6 mph - N/A   Clear
5:35 AM 55.4 °F 50.5 °F 84% 30.28 in 10.0 mi NNE 5.8 mph - N/A   Clear
5:55 AM 54.5 °F 50.4 °F 86% 30.29 in 10.0 mi North 5.8 mph - N/A   Clear
6:15 AM 54.3 °F 50.4 °F 86% 30.30 in 7.0 mi North 4.6 mph - N/A   Clear
6:35 AM 55.6 °F 50.9 °F 84% 30.30 in 7.0 mi NNE 5.8 mph - N/A   Clear
6:55 AM 55.8 °F 50.9 °F 84% 30.31 in 10.0 mi NNE 4.6 mph - N/A   Clear
7:15 AM 57.2 °F 51.1 °F 80% 30.31 in 7.0 mi NE 3.5 mph - N/A   Clear
7:35 AM 59.0 °F 52.0 °F 78% 30.31 in 3.0 mi NE 3.5 mph - N/A   Haze
7:55 AM 60.4 °F 52.7 °F 76% 30.31 in 5.0 mi ENE 3.5 mph - N/A   Haze
8:15 AM 61.2 °F 53.4 °F 76% 30.31 in 10.0 mi ENE 3.5 mph - N/A   Clear
8:35 AM 63.7 °F 54.0 °F 71% 30.31 in 7.0 mi ENE 4.6 mph - N/A   Clear
8:55 AM 66.9 °F 53.1 °F 61% 30.30 in 7.0 mi ENE 9.2 mph - N/A   Clear
9:15 AM 68.9 °F 51.4 °F 54% 30.31 in 7.0 mi ENE 9.2 mph - N/A   Clear
9:35 AM 70.5 °F 51.3 °F 50% 30.30 in 10.0 mi ENE 9.2 mph - N/A   Clear
9:55 AM 71.6 °F 51.1 °F 48% 30.30 in 7.0 mi ENE 11.5 mph - N/A   Clear
10:15 AM 72.7 °F 49.6 °F 44% 30.30 in 10.0 mi ENE 10.4 mph 18.4 mph N/A   Clear
10:35 AM 73.6 °F 48.4 °F 41% 30.29 in 10.0 mi ENE 11.5 mph 18.4 mph N/A   Clear
10:55 AM 75.0 °F 45.3 °F 35% 30.29 in 7.0 mi East 12.7 mph 19.6 mph N/A   Clear
11:15 AM 74.5 °F 45.9 °F 36% 30.27 in 7.0 mi ENE 10.4 mph - N/A   Clear
11:35 AM 75.6 °F 45.5 °F 34% 30.27 in 7.0 mi ENE 9.2 mph - N/A   Clear
11:55 AM 76.6 °F 45.5 °F 33% 30.27 in 10.0 mi East 10.4 mph - N/A   Clear
12:15 PM 77.2 °F 45.7 °F 33% 30.26 in 10.0 mi ENE 9.2 mph 16.1 mph N/A   Clear
12:35 PM 77.5 °F 45.1 °F 32% 30.25 in 10.0 mi ENE 12.7 mph - N/A   Clear
12:55 PM 78.3 °F 45.5 °F 31% 30.24 in 7.0 mi ENE 9.2 mph - N/A   Clear
1:15 PM 77.9 °F 45.5 °F 32% 30.23 in 10.0 mi NE 10.4 mph 16.1 mph N/A   Clear
1:55 PM 79.0 °F 46.2 °F 31% 30.22 in 10.0 mi East 6.9 mph - N/A   Clear
2:15 PM 78.3 °F 46.0 °F 32% 30.21 in 10.0 mi ENE 8.1 mph - N/A   Clear
2:35 PM 78.4 °F 46.6 °F 32% 30.20 in 7.0 mi ENE 8.1 mph - N/A   Clear
2:55 PM 77.4 °F 46.2 °F 33% 30.19 in 10.0 mi ENE 8.1 mph - N/A   Clear
3:15 PM 77.5 °F 46.2 °F 33% 30.19 in 10.0 mi ESE 8.1 mph - N/A   Clear
3:35 PM 77.0 °F 46.4 °F 34% 30.19 in 7.0 mi ESE 6.9 mph - N/A   Clear
3:55 PM 77.0 °F 46.4 °F 34% 30.19 in 7.0 mi ESE 8.1 mph - N/A   Clear
4:15 PM 76.1 °F 47.1 °F 36% 30.18 in 7.0 mi ESE 6.9 mph - N/A   Clear
4:35 PM 76.1 °F 47.8 °F 37% 30.18 in 10.0 mi East 5.8 mph - N/A   Clear
4:55 PM 77.7 °F 47.1 °F 34% 30.17 in 10.0 mi East 6.9 mph - N/A   Clear
5:15 PM 76.6 °F 46.8 °F 35% 30.17 in 10.0 mi East 5.8 mph - N/A   Clear
5:35 PM 77.4 °F 46.0 °F 33% 30.17 in 10.0 mi ESE 6.9 mph - N/A   Scattered Clouds
5:55 PM 75.9 °F 46.9 °F 36% 30.16 in 10.0 mi East 5.8 mph - N/A   Scattered Clouds
6:15 PM 74.5 °F 51.4 °F 44% 30.16 in 7.0 mi ENE 3.5 mph - N/A   Clear
6:35 PM 72.0 °F 53.1 °F 51% 30.15 in 10.0 mi NE 3.5 mph - N/A   Clear
6:55 PM 70.7 °F 54.0 °F 55% 30.15 in 10.0 mi NNE 3.5 mph - N/A   Clear
7:15 PM 69.6 °F 54.7 °F 59% 30.15 in 3.0 mi NNE 3.5 mph - N/A   Haze
7:35 PM 68.2 °F 55.8 °F 64% 30.15 in 4.0 mi North 4.6 mph - N/A   Haze
7:55 PM 67.6 °F 56.1 °F 67% 30.15 in 4.0 mi NNE 3.5 mph - N/A   Haze
8:15 PM 67.5 °F 56.3 °F 67% 30.16 in 10.0 mi Calm Calm - N/A   Clear
8:35 PM 67.1 °F 56.3 °F 68% 30.16 in 7.0 mi Calm Calm - N/A   Clear
8:55 PM 66.9 °F 55.9 °F 68% 30.15 in 10.0 mi Calm Calm - N/A   Clear
9:15 PM 65.5 °F 57.2 °F 75% 30.15 in 10.0 mi NE 3.5 mph - N/A   Clear
9:35 PM 65.7 °F 55.9 °F 71% 30.15 in 2.5 mi NE 3.5 mph - N/A   Haze
9:55 PM 65.3 °F 56.8 °F 74% 30.15 in 10.0 mi North 3.5 mph - N/A   Clear
10:15 PM 65.3 °F 55.4 °F 70% 30.16 in 7.0 mi North 4.6 mph - N/A   Mostly Cloudy
10:35 PM 66.0 °F 55.2 °F 68% 30.16 in 10.0 mi Calm Calm - N/A   Overcast
10:55 PM 65.5 °F 56.7 °F 73% 30.16 in 10.0 mi Calm Calm - N/A   Overcast
11:15 PM 65.3 °F 56.3 °F 73% 30.15 in 10.0 mi Calm Calm - N/A   Mostly Cloudy
11:35 PM 64.4 °F 56.5 °F 75% 30.15 in 10.0 mi Calm Calm - N/A   Scattered Clouds
11:55 PM 64.4 °F 56.1 °F 74% 30.14 in 10.0 mi Calm Calm - N/A   Clear